Home > Weather > Vancouver > Past weeks

Flag for Canada Past Weather in Vancouver, British Columbia, Canada — Yesterday and Last 2 Weeks

Now
75 °F

Broken clouds.


Feels Like: 77 °F
Forecast: 58 / 80 °F
Wind: 8 mph from Northwest

Location: Vancouver International Airport

Current Time: Jun 27, 2016 at 3:19:21 PM

Latest Report: Jun 27, 2016 at 3:00 PM


Visibility: 30 mi

Pressure: 30.12 "Hg

Humidity: 65%

Dew Point: 63 °F

Location of VancouverLocation

Past Weather in Vancouver — Graph

°F

Vancouver Temperature Yesterday

Maximum temperature yesterday: 72 °F (at 4:00 PM)
Minimum temperature yesterday: 54 °F (at 4:00 AM)
Average temperature yesterday: 64 °F

High & Low Weather Summary for the Past Weeks

 TemperatureHumidityPressure
High72 °F (Jun 26, 4:00 PM)100% (Jun 20, 1:00 AM)30.42 "Hg (Jun 20, 1:00 AM)
Low46 °F (Jun 15, 3:00 AM)49% (Jun 12, 3:00 PM)29.85 "Hg (Jun 14, 3:00 AM)
Average59 °F77%30.10 "Hg
* Reported Jun 12 2:00 PM — Jun 27 2:00 PM, Vancouver, Weather by CustomWeather, © 2016

Note: Actual official high and low records may vary slightly from our data, if they occured in-between our weather recording intervals... More about our weather records

Advertising

Vancouver Weather History for the Previous 24 Hours

Scroll right to see more
 ConditionsComfort  
Time TempWeatherWind HumidityBarometerVisibility
2:00 PM
Mon, Jun 27
72 °FBroken clouds.7 mph69%30.13 "Hg30 mi
1:00 PM72 °FScattered clouds.9 mph69%30.14 "Hg30 mi
12:00 PM72 °FScattered clouds.9 mph69%30.14 "Hg30 mi
11:00 AM70 °FBroken clouds.13 mph73%30.14 "Hg30 mi
10:00 AM66 °FPartly sunny.12 mph83%30.15 "Hg30 mi
9:00 AM66 °FPartly sunny.13 mph78%30.15 "Hg30 mi
8:00 AM66 °FPartly sunny.10 mph83%30.14 "Hg30 mi
7:00 AM64 °FPassing clouds.2 mph83%30.14 "Hg30 mi
6:00 AM59 °FPassing clouds.5 mph82%30.13 "Hg30 mi
5:00 AM61 °FPassing clouds.No wind83%30.12 "Hg30 mi
4:00 AM59 °FPassing clouds.5 mph88%30.11 "Hg20 mi
3:00 AM61 °FPassing clouds.3 mph77%30.11 "Hg20 mi
2:00 AM59 °FPassing clouds.No wind88%30.11 "Hg20 mi
1:00 AM64 °FPassing clouds.2 mph73%30.10 "Hg30 mi
12:00 AM61 °FPassing clouds.6 mph88%30.10 "Hg30 mi
11:00 PM
Sun, Jun 26
61 °FPassing clouds.8 mph88%30.11 "Hg30 mi
10:00 PM61 °FPartly sunny.7 mph88%30.11 "Hg30 mi
9:00 PM64 °FPartly sunny.8 mph83%30.10 "Hg30 mi
8:00 PM68 °FScattered clouds.9 mph78%30.11 "Hg30 mi
7:00 PM70 °FScattered clouds.10 mph73%30.12 "Hg30 mi
6:00 PM70 °FScattered clouds.14 mph69%30.14 "Hg30 mi
5:00 PM72 °FPassing clouds.12 mph69%30.15 "Hg30 mi
4:00 PM72 °FSunny.12 mph69%30.17 "Hg30 mi
3:00 PM70 °FSunny.13 mph73%30.19 "Hg30 mi
Weather by CustomWeather, © 2016

See weather overviewHow to use our weather pages